EHI
0 0 0 0 0 0 0 0 0 0 0 0 0 0 2 4 10 25 50 72 80 78 77 75 72 66 54 42 36 33 31 24 11 4 2 1 0 0 0 0 0 0 0 0
0 0 0 0 0 0 0 0 0 0 0 0 0 0 1 2 5 16 36 58 70 75 78 75 70 60 46 34 27 22 19 14 8 4 2 1 1 0 0 0 0 0 0 0
0 0 0 0 0 0 0 0 0 0 0 0 0 0 0 0 1 5 16 33 51 68 77 72 59 42 28 20 14 10 8 8 8 8 5 3 2 1 0 0 0 1 0 0
0 0 0 0 0 0 0 0 0 0 0 0 0 0 0 0 0 1 5 16 35 58 71 62 40 21 13 9 6 4 6 12 17 18 14 9 4 1 0 0 1 2 1 0
0 0 0 0 0 0 0 0 0 0 0 0 0 0 0 0 0 0 4 12 27 46 56 47 27 12 8 6 3 2 8 20 32 34 27 18 9 2 0 0 1 2 1 0
0 0 0 0 0 0 0 0 0 0 0 0 0 0 0 0 0 1 6 18 29 38 41 35 25 17 12 8 4 3 9 23 40 45 39 30 19 8 3 1 0 1 0 0
0 0 0 0 0 0 0 0 0 0 0 0 0 0 0 0 0 1 9 22 30 30 29 26 22 18 14 10 5 5 11 23 37 47 50 48 35 18 6 2 0 0 0 0
0 0 0 0 0 0 0 0 0 0 0 0 0 0 0 1 1 2 9 17 20 16 13 12 10 9 7 6 5 8 17 30 41 51 63 66 54 30 13 6 3 1 1 0
0 0 0 0 0 0 0 0 0 0 0 0 0 0 0 1 2 2 4 6 6 4 1 1 1 1 1 2 5 11 22 37 49 59 69 72 63 47 29 16 9 4 3 2
0 0 0 0 0 0 0 0 0 0 0 0 0 0 0 1 1 1 1 1 1 0 0 0 0 0 0 1 4 8 16 27 39 50 58 63 64 59 46 29 16 9 8 8
0 0 0 0 0 0 0 0 0 0 0 0 0 0 0 0 0 0 0 0 0 0 0 0 0 0 0 0 1 3 5 10 16 24 32 43 54 57 50 37 24 15 13 14
0 0 0 0 0 0 0 0 0 0 0 0 0 0 0 0 0 0 0 0 0 0 0 0 0 0 0 0 0 0 0 1 2 4 9 17 29 38 41 36 25 16 13 14
0 0 0 0 0 0 0 0 0 0 0 0 0 0 0 0 0 0 0 0 0 0 0 0 0 0 0 0 0 0 0 0 0 0 0 2 7 15 22 24 20 13 9 8
0 0 0 0 0 0 0 0 0 0 0 0 0 0 0 0 0 0 0 0 0 0 0 0 0 0 0 0 0 0 0 0 0 0 0 0 0 2 6 10 11 8 5 4
0 0 0 0 0 0 0 0 0 0 0 0 0 0 0 0 0 0 0 0 0 0 0 0 0 0 0 0 0 0 0 0 0 0 0 0 0 0 0 2 3 3 2 1
0 0 0 0 0 0 0 0 0 0 0 0 0 0 0 0 0 0 0 0 0 0 0 0 0 0 0 0 0 0 0 0 0 0 0 0 0 0 0 0 0 0 0 0
0 0 0 0 0 0 0 0 0 0 0 0 0 0 0 0 0 0 0 0 0 0 0 0 0 0 0 0 0 0 0 0 0 0 0 0 0 0 0 0 0 0 0 0
0 0 0 0 0 0 0 0 0 0 0 0 0 0 0 0 0 0 0 0 0 0 0 0 0 0 0 0 0 0 0 0 0 0 0 0 0 0 0 0 0 0 0 0
0 0 0 0 0 0 0 0 0 0 0 0 0 0 0 0 0 0 0 0 0 0 0 0 0 0 0 0 0 0 0 0 0 0 0 0 0 0 0 0 0 0 0 0
0 0 0 0 0 0 0 0 0 0 0 0 0 0 0 0 0 0 0 0 0 0 0 0 0 0 0 0 0 0 0 0 0 0 0 0 0 0 0 0 0 0 0 0
0 0 0 0 0 0 0 0 0 0 0 0 0 0 0 0 0 0 0 0 0 0 0 0 0 0 0 0 0 0 0 0 0 0 0 0 0 0 0 0 0 0 0 0
0 0 0 0 0 0 0 0 0 0 0 0 0 0 0 0 0 0 0 0 0 0 0 0 0 0 0 0 0 0 0 0 0 0 0 0 0 0 0 0 0 0 0 0
0 0 0 0 0 0 0 0 0 0 0 0 0 0 0 0 0 0 0 0 0 0 0 0 0 0 0 0 0 0 0 0 0 0 0 0 0 0 0 0 0 0 0 0
0 0 0 0 0 0 0 0 0 0 0 0 0 0 0 0 0 0 0 0 0 0 0 0 0 0 0 0 0 0 0 0 0 0 0 0 0 0 0 0 0 0 0 0
0 0 0 0 0 0 0 0 0 0 0 0 0 0 0 0 0 0 0 0 0 0 0 0 0 0 0 0 0 0 0 0 0 0 0 0 0 0 0 0 0 0 0 0
0 0 0 0 0 0 0 0 0 0 0 0 0 0 0 0 0 0 0 0 0 0 0 0 0 0 0 0 0 0 0 0 0 0 0 0 0 0 0 0 0 0 0 0
Wind_Speed
3 6 0 3 3 4 2 5 5 1 4 6 5 5 1 2 5 7 9 10 10 9 9 8 8 7 7 7 6 6 5 5 4 3 3 3 3 3 3 3 2 3 4 5
7 3 4 1 1 3 3 5 5 3 1 7 8 8 4 4 5 6 8 9 10 9 9 9 8 8 8 8 7 6 6 6 5 3 2 3 4 4 4 4 3 4 5 5
4 6 2 2 2 3 4 6 6 7 7 8 9 12 8 6 6 6 8 9 10 10 10 10 10 9 8 8 7 5 5 5 5 4 4 3 4 5 5 5 4 3 5 6
1 2 2 4 3 7 6 3 6 8 11 10 6 12 9 5 8 9 8 8 9 9 9 9 9 9 8 7 6 6 6 6 6 6 6 7 6 6 6 5 4 4 5 6
2 4 6 7 6 7 7 3 6 9 11 12 7 9 5 1 6 6 5 5 5 6 6 6 5 5 4 4 4 5 6 7 7 7 7 7 8 6 5 4 4 6 5 6
3 2 4 6 4 4 2 6 8 9 9 6 2 8 4 6 7 7 4 2 1 1 2 2 2 2 3 4 6 7 7 8 8 8 8 8 8 7 7 7 6 6 5 5
1 2 2 4 7 3 6 9 8 7 5 1 2 7 4 11 12 11 10 10 10 11 11 11 11 10 9 9 9 9 8 8 7 8 8 8 8 8 8 8 7 7 7 6
3 2 4 5 7 10 8 9 9 9 8 7 4 4 8 15 15 16 16 17 17 17 16 15 15 13 12 12 12 11 9 8 7 6 6 6 7 7 7 6 7 7 7 7
5 5 1 2 4 7 7 6 7 10 12 11 6 2 9 15 16 16 16 17 17 16 16 15 15 15 15 14 15 14 12 10 8 7 6 6 7 8 8 7 8 8 6 7
6 9 7 2 4 1 5 6 5 8 8 10 7 6 3 11 12 13 15 15 15 15 15 15 14 15 14 14 14 14 14 13 12 11 9 7 8 8 8 9 9 8 8 8
7 9 10 7 6 7 3 2 5 7 7 9 13 3 8 9 9 10 12 13 13 14 14 13 13 13 13 14 14 14 14 14 14 13 13 11 10 10 9 9 10 10 9 9
4 8 10 9 2 1 4 4 5 6 8 9 12 2 9 8 8 9 10 11 12 13 13 13 13 13 13 13 14 13 13 13 13 13 13 13 13 12 11 11 11 11 11 11
4 7 10 6 6 6 4 3 6 8 9 9 12 4 7 6 6 8 11 13 14 15 16 15 14 14 13 13 13 13 13 13 13 13 13 13 14 14 14 13 13 12 12 12
6 10 11 12 10 8 7 5 6 9 10 10 9 5 6 7 9 11 13 14 15 16 15 15 14 13 13 12 12 12 12 12 13 13 13 13 14 14 15 15 14 13 13 13
5 8 9 10 8 5 4 7 8 7 8 10 9 6 7 9 11 12 13 15 16 16 14 13 12 11 11 10 9 9 10 10 9 10 11 11 11 12 14 15 14 14 13 14
3 7 8 9 3 1 7 9 6 5 6 6 4 3 6 10 10 13 15 16 18 17 17 16 16 15 15 14 13 13 12 12 11 12 12 11 10 11 12 13 14 14 14 13
4 5 7 8 1 8 4 10 9 5 4 6 5 7 11 14 14 15 18 20 19 19 20 20 20 19 18 18 17 16 16 15 14 14 14 13 13 12 12 12 12 13 13 13
6 6 6 9 9 7 9 6 7 5 3 2 4 10 14 17 18 19 20 17 18 21 23 23 21 21 21 21 20 19 19 18 17 16 16 15 15 14 13 12 12 11 10 10
5 6 7 7 10 6 6 6 9 10 10 5 10 18 20 21 22 19 16 19 23 24 23 22 23 24 23 22 21 21 20 19 19 18 17 16 16 15 14 14 13 11 9 9
3 5 6 6 9 4 7 9 10 9 8 2 17 21 22 24 21 18 21 23 24 24 22 23 23 24 23 22 21 21 21 20 20 19 18 17 16 16 16 15 14 12 10 9
7 5 6 7 7 6 7 10 12 11 12 18 20 22 23 22 21 24 26 26 25 25 25 24 23 21 20 21 21 22 21 21 20 19 18 17 16 16 16 15 13 12 11 10
7 6 6 7 6 4 8 11 10 14 18 20 22 22 23 24 25 26 26 26 26 26 25 25 22 21 20 20 21 21 21 20 19 18 18 17 16 16 14 14 13 12 11 11
4 6 6 6 5 4 8 11 14 16 19 20 20 23 24 26 27 28 27 26 25 25 24 22 22 22 20 18 18 21 20 20 19 19 18 17 17 15 14 14 13 12 11 10
4 1 4 5 4 8 14 14 15 17 20 21 22 24 25 27 28 28 26 25 25 24 23 21 22 21 20 19 20 20 20 19 18 18 17 15 15 15 15 12 12 12 11 10
3 1 5 8 7 12 11 16 19 19 20 22 22 24 25 27 27 28 26 25 24 23 22 20 20 20 22 21 20 20 19 19 18 17 15 14 13 13 13 12 11 11 10 7
1 3 6 7 11 15 19 19 20 20 21 23 25 26 24 25 27 27 25 24 24 23 22 22 22 22 22 22 21 19 18 18 17 15 14 11 10 10 11 11 11 11 10 6
Wind_Direction
242 247 80 51 348 354 297 269 260 308 5 315 326 326 343 182 204 196 193 188 190 187 170 175 172 168 164 161 167 175 175 166 186 196 231 236 249 259 259 260 272 278 294 304
215 120 49 34 205 242 261 261 260 239 319 306 306 297 271 227 227 223 210 201 200 191 183 181 173 169 163 157 161 167 174 171 192 187 233 267 294 282 290 283 264 274 291 300
11 51 29 232 195 267 284 293 307 311 309 262 278 272 231 212 222 230 233 225 215 208 200 182 176 173 171 167 173 183 185 192 210 212 228 228 239 249 245 251 250 271 298 299
334 41 330 292 301 305 299 323 299 296 293 295 298 292 275 242 239 233 232 229 226 216 206 184 179 181 182 181 189 202 211 218 221 226 241 254 271 284 297 292 292 292 282 291
350 341 314 308 335 309 327 335 282 289 290 287 270 277 296 144 272 257 239 240 239 220 199 179 191 193 200 214 229 231 233 234 230 234 240 249 257 271 278 279 272 276 279 277
316 298 311 330 326 310 296 253 248 250 260 260 43 304 315 35 3 351 7 24 12 34 69 57 20 338 313 298 282 267 253 247 240 234 239 244 259 266 275 273 281 274 277 274
229 178 77 318 307 264 268 283 278 263 246 317 89 288 26 44 32 23 25 35 41 38 33 27 18 5 352 339 323 307 289 272 256 242 241 242 248 252 253 263 268 276 287 286
281 301 31 0 339 319 303 289 283 296 302 310 277 269 71 64 53 49 50 49 47 46 43 38 33 26 16 8 358 345 329 309 293 270 259 254 250 250 254 250 273 279 286 296
304 313 15 13 330 311 302 288 315 289 279 278 277 202 120 67 57 52 50 49 47 44 42 38 34 30 25 21 17 10 3 354 343 324 299 271 258 258 262 259 253 264 269 280
296 296 308 328 237 145 323 316 283 280 289 288 278 257 24 34 40 46 43 40 37 34 32 30 26 23 19 17 16 14 14 9 2 352 334 312 289 271 261 258 261 265 268 270
290 289 294 291 318 335 277 256 301 286 290 294 292 336 53 47 43 37 36 30 25 20 17 15 12 10 8 7 7 6 6 5 2 359 349 337 320 302 284 270 264 260 259 259
306 293 297 302 67 245 291 324 318 307 298 282 283 35 74 66 49 29 16 9 4 359 356 355 355 355 355 356 355 354 352 353 352 351 346 344 337 326 310 294 281 270 260 253
304 279 286 274 176 189 249 282 304 301 287 279 287 82 95 59 27 9 355 349 343 341 341 341 343 343 344 344 343 341 340 341 338 337 336 337 336 335 328 316 302 285 269 257
278 264 275 295 316 320 297 305 307 289 286 294 316 56 75 20 355 345 339 333 328 326 327 328 329 329 330 329 329 327 327 328 327 326 324 325 326 327 324 321 314 300 282 265
267 264 270 281 294 301 349 358 353 340 338 323 352 22 28 356 335 320 313 310 309 309 309 308 304 302 300 300 300 299 299 299 301 302 301 302 308 312 313 316 315 309 293 274
283 288 287 273 268 154 76 31 24 27 4 353 347 52 5 324 304 294 295 299 301 303 305 304 300 298 297 298 296 293 289 286 281 279 279 278 281 288 295 301 306 305 298 284
291 286 283 288 265 230 107 24 9 18 2 346 351 338 319 310 307 308 307 304 304 309 311 309 307 304 303 301 299 293 290 287 284 279 277 274 268 267 271 280 287 294 298 293
334 309 282 294 287 279 79 50 14 338 284 265 303 313 316 313 313 309 302 310 317 316 312 309 306 303 301 299 298 296 292 289 286 283 281 280 274 268 264 266 272 281 292 295
9 326 307 312 304 111 113 28 354 316 288 241 303 321 321 320 311 303 322 328 316 310 308 306 304 302 301 299 296 293 291 289 286 284 283 282 279 274 270 268 269 274 283 291
18 338 318 331 309 341 66 8 330 289 268 356 325 321 321 318 311 316 324 315 310 309 306 304 302 301 298 297 297 293 291 287 284 283 282 281 280 276 272 270 269 270 275 280
345 349 355 327 312 75 30 338 321 305 327 330 319 317 315 312 308 309 312 312 310 307 305 305 303 301 300 299 295 290 287 285 285 284 281 277 276 273 267 263 261 261 264 275
340 342 352 327 325 52 7 333 332 315 314 314 314 313 311 308 307 309 310 309 309 308 307 307 305 302 301 299 295 290 286 286 284 281 277 273 271 269 266 256 252 253 259 264
6 4 341 342 348 3 330 314 311 313 313 314 313 311 310 309 309 310 309 308 307 307 306 307 305 302 300 297 294 289 288 287 284 279 275 272 268 263 261 260 252 247 243 251
117 274 301 292 287 315 312 308 318 321 316 312 310 310 310 308 308 309 308 308 307 307 307 307 304 301 298 295 291 287 286 284 280 276 272 267 264 258 251 247 246 244 243 243
54 284 294 280 307 311 307 324 326 319 313 310 310 309 309 309 308 309 308 307 308 307 306 305 301 298 296 294 290 287 285 283 278 274 268 263 259 255 254 247 243 245 246 250
100 337 317 319 326 313 314 322 319 315 314 314 313 311 311 309 308 308 307 307 307 306 307 305 301 299 298 295 291 287 284 281 276 271 263 255 250 248 246 243 233 218 232 183